EA1FBN Weather Reports


time (UTC)temp
F
wind
direction
speed
knots
gust
knots
rain 1hr
in
rain 24hr
in
rain mn
in
humidity
%
barometer
mb
20260508060456 46 309 1.7 3.5 0.00 0.15 0.00 69 1011.4
20260508055956 46 303 0.9 2.6 0.00 0.15 0.00 69 1011.4
20260508055456 46 300 0.9 3.5 0.00 0.15 0.00 68 1011.4
20260508054956 46 302 0.9 2.6 0.00 0.15 0.00 68 1011.4
20260508054456 46 300 0.9 2.6 0.00 0.15 0.00 66 1011.4
20260508053956 46 307 0.0 2.6 0.00 0.15 0.00 66 1011.4
20260508053457 45 292 0.0 0.9 0.00 0.15 0.00 65 1011.3
20260508052957 45 306 0.0 0.9 0.00 0.15 0.00 64 1011.3
20260508052457 45 303 0.0 0.9 0.00 0.15 0.00 63 1011.2
20260508051957 45 297 0.0 0.9 0.00 0.15 0.00 61 1011.2
20260508051457 45 291 0.9 1.7 0.00 0.15 0.00 60 1011.1
20260508050957 45 301 0.9 1.7 0.00 0.15 0.00 59 1011.1
20260508050457 44 300 0.9 3.5 0.00 0.15 0.00 59 1011.0
20260508045957 44 285 0.0 1.7 0.00 0.15 0.00 59 1011.1
20260508045457 44 252 0.0 1.7 0.00 0.15 0.00 59 1011.0
20260508044957 44 261 0.0 1.7 0.00 0.15 0.00 60 1011.1
20260508044457 44 268 0.0 1.7 0.00 0.15 0.00 60 1011.1
20260508043957 44 255 0.0 0.9 0.00 0.15 0.00 60 1011.1
20260508043457 44 262 0.0 2.6 0.00 0.15 0.00 61 1011.0
20260508042957 44 250 0.0 0.9 0.00 0.15 0.00 61 1011.1
20260508042457 44 255 0.0 1.7 0.00 0.15 0.00 62 1011.0
20260508041957 44 256 0.0 0.9 0.00 0.15 0.00 62 1011.0
20260508041457 44 259 0.0 0.9 0.00 0.15 0.00 63 1011.0
20260508040957 44 259 0.9 1.7 0.00 0.15 0.00 63 1011.0
20260508040457 44 294 0.9 1.7 0.00 0.15 0.00 64 1010.9
20260508035957 44 281 0.9 4.3 0.00 0.15 0.00 64 1010.9
20260508035457 44 279 0.9 4.3 0.00 0.15 0.00 65 1010.7
20260508034957 45 252 1.7 4.3 0.00 0.15 0.00 65 1010.7
20260508034457 45 295 0.9 4.3 0.00 0.15 0.00 65 1010.8
20260508033957 45 263 1.7 4.3 0.00 0.15 0.00 66 1010.9
20260508033457 45 253 1.7 5.2 0.00 0.15 0.00 66 1010.9
20260508032957 45 262 1.7 5.2 0.00 0.15 0.00 67 1010.9
20260508032457 45 264 0.9 4.3 0.00 0.15 0.00 67 1011.0
20260508031957 45 264 0.9 2.6 0.00 0.15 0.00 68 1011.0
20260508031457 45 241 0.9 3.5 0.00 0.15 0.00 68 1011.1
20260508030957 45 259 0.9 1.7 0.00 0.15 0.00 68 1011.0
20260508030457 46 253 0.9 2.6 0.00 0.15 0.00 69 1010.9
20260508025957 46 271 0.0 1.7 0.00 0.15 0.00 70 1011.0
20260508025457 46 261 0.0 1.7 0.00 0.15 0.00 70 1011.0
20260508024957 46 272 0.9 1.7 0.00 0.15 0.00 71 1010.9
20260508024457 46 267 0.0 1.7 0.00 0.15 0.00 71 1010.9
20260508023957 46 257 0.0 1.7 0.00 0.15 0.00 72 1010.9
20260508023457 46 255 0.0 0.9 0.00 0.15 0.00 72 1010.9
20260508022958 46 280 0.0 0.9 0.00 0.15 0.00 72 1011.0
20260508022457 47 277 0.0 1.7 0.00 0.15 0.00 72 1011.1
20260508021957 47 276 0.0 1.7 0.00 0.15 0.00 72 1011.2
20260508021457 47 271 0.0 1.7 0.00 0.15 0.00 73 1011.2
20260508020957 47 278 0.9 1.7 0.00 0.15 0.00 73 1011.2
20260508020457 47 288 0.9 1.7 0.00 0.15 0.00 73 1011.3
20260508015957 47 278 0.9 1.7 0.00 0.15 0.00 73 1011.3
20260508015457 48 290 0.0 1.7 0.00 0.15 0.00 73 1011.3
20260508014957 48 268 0.0 0.9 0.00 0.15 0.00 73 1011.4
20260508014457 48 292 0.0 1.7 0.00 0.15 0.00 73 1011.4
20260508013957 48 262 0.0 0.9 0.00 0.15 0.00 73 1011.5
20260508013457 48 259 0.0 0.9 0.00 0.15 0.00 73 1011.6
20260508012957 48 244 0.0 0.9 0.00 0.15 0.00 73 1011.7
20260508012457 48 230 0.0 0.9 0.00 0.15 0.00 74 1011.8
20260508011957 49 230 0.0 0.0 0.00 0.15 0.00 74 1011.7
20260508011457 49 230 0.0 0.0 0.00 0.15 0.00 74 1011.8
20260508010957 49 179 0.0 0.0 0.00 0.15 0.00 74 1011.8
20260508010457 49 179 0.0 0.0 0.00 0.15 0.00 74 1011.8
20260508005957 49 178 0.0 0.0 0.00 0.15 0.00 74 1011.8
20260508005457 49 179 0.0 0.0 0.00 0.15 0.00 74 1011.9
20260508004958 49 179 0.0 0.9 0.00 0.15 0.00 75 1011.9
20260508004458 50 201 0.0 0.0 0.00 0.15 0.00 75 1011.9
20260508003957 50 310 0.0 0.0 0.00 0.15 0.00 75 1011.9
20260508003458 50 310 0.9 1.7 0.00 0.15 0.00 75 1011.9
20260508002958 50 330 0.0 1.7 0.00 0.15 0.00 75 1011.9
20260508002458 50 295 0.0 0.9 0.00 0.15 0.00 75 1011.9
20260508001958 50 283 0.0 2.6 0.00 0.15 0.00 75 1011.9
20260508001458 50 310 0.9 0.0 0.00 0.15 0.00 75 1012.0
20260508000958 50 310 1.7 2.6 0.00 0.15 0.00 75 1012.0
20260508000458 50 296 1.7 3.5 0.00 0.15 0.00 75 1012.0
20260507235958 50 294 0.9 3.5 0.00 0.15 0.00 75 1012.0
20260507235458 50 314 0.9 2.6 0.00 0.15 0.00 75 1012.0
20260507234958 50 292 1.7 3.5 0.00 0.15 0.00 75 1012.1
20260507234458 50 304 1.7 5.2 0.00 0.15 0.00 75 1012.2
20260507233958 50 299 1.7 3.5 0.00 0.15 0.00 75 1012.2
20260507233458 50 290 1.7 3.5 0.00 0.15 0.00 75 1012.3
20260507232958 50 300 1.7 2.6 0.00 0.15 0.00 75 1012.3
20260507232458 50 323 1.7 3.5 0.00 0.15 0.00 75 1012.3
20260507231958 50 291 1.7 4.3 0.00 0.15 0.00 75 1012.3
20260507231458 50 290 1.7 3.5 0.00 0.15 0.00 75 1012.4
20260507230958 50 317 1.7 4.3 0.00 0.15 0.00 75 1012.4
20260507230458 50 282 1.7 5.2 0.00 0.15 0.00 75 1012.4
20260507225958 50 319 0.9 4.3 0.00 0.15 0.00 75 1012.5
20260507225458 50 317 0.9 2.6 0.00 0.15 0.00 75 1012.5
20260507224958 50 316 1.7 3.5 0.00 0.15 0.00 75 1012.5
20260507224458 50 342 1.7 6.1 0.00 0.15 0.00 75 1012.4
20260507223958 50 338 2.6 5.2 0.00 0.15 0.00 75 1012.4
20260507223458 50 300 3.5 5.2 0.00 0.15 0.00 75 1012.5
20260507222958 50 307 3.5 6.1 0.00 0.15 0.00 75 1012.5
20260507222458 50 312 2.6 6.1 0.00 0.15 0.00 75 1012.5
20260507221958 50 313 2.6 5.2 0.00 0.15 0.00 75 1012.4
20260507221458 50 344 1.7 6.1 0.00 0.15 0.00 75 1012.5
20260507220958 50 308 0.9 4.3 0.00 0.15 0.00 75 1012.5
20260507220458 50 340 0.9 2.6 0.00 0.15 0.00 75 1012.4
20260507215958 50 313 0.9 2.6 0.00 0.15 0.15 75 1012.3
20260507215458 50 278 0.9 2.6 0.00 0.15 0.15 75 1012.2
20260507214958 50 297 1.7 2.6 0.00 0.15 0.15 75 1012.2
20260507214458 51 302 1.7 3.5 0.00 0.15 0.15 75 1012.2
20260507213958 51 304 1.7 3.5 0.00 0.15 0.15 75 1012.1
20260507213458 51 334 2.6 3.5 0.00 0.15 0.15 75 1012.0
20260507212958 51 299 2.6 5.2 0.00 0.15 0.15 75 1012.0
20260507212458 51 300 2.6 4.3 0.00 0.15 0.15 75 1012.0
20260507211958 51 294 1.7 3.5 0.00 0.15 0.15 75 1012.1
20260507211458 51 289 0.9 3.5 0.00 0.15 0.15 75 1012.2
20260507210958 51 291 0.9 2.6 0.00 0.15 0.15 75 1012.2
20260507210458 51 288 0.9 3.5 0.00 0.15 0.15 74 1012.2
20260507205958 51 60 0.9 3.5 0.00 0.15 0.15 75 1012.2
20260507205458 51 300 0.0 0.9 0.00 0.15 0.15 75 1012.1
20260507204958 51 333 0.9 1.7 0.00 0.15 0.15 75 1012.1
20260507204458 51 54 0.9 1.7 0.00 0.15 0.15 75 1012.1
20260507203958 51 55 0.0 3.5 0.00 0.15 0.15 75 1012.1
20260507203458 52 37 0.0 2.6 0.00 0.15 0.15 75 1012.1
20260507202958 52 65 1.7 2.6 0.00 0.15 0.15 75 1012.1
20260507202458 52 60 2.6 6.1 0.00 0.15 0.15 74 1012.0
20260507201958 52 76 1.7 4.3 0.00 0.15 0.15 74 1012.0
20260507201458 52 49 1.7 4.3 0.00 0.15 0.15 73 1011.9
20260507200958 53 100 0.9 3.5 0.00 0.15 0.15 73 1012.0
20260507200458 53 53 0.9 3.5 0.00 0.15 0.15 73 1011.9
20260507195958 53 14 1.7 2.6 0.00 0.15 0.15 74 1011.7
20260507195459 53 40 3.5 5.2 0.00 0.15 0.15 73 1011.6
20260507194958 54 10 3.5 5.2 0.00 0.15 0.15 72 1011.4
20260507194459 54 41 2.6 5.2 0.00 0.15 0.15 72 1011.2
20260507193959 54 338 1.7 3.5 0.00 0.15 0.15 72 1011.1
20260507193458 55 351 1.7 5.2 0.00 0.15 0.15 72 1011.0
20260507192959 55 340 2.6 3.5 0.00 0.15 0.15 71 1011.0
20260507192459 55 300 2.6 5.2 0.00 0.15 0.15 71 1011.0
20260507191959 55 345 3.5 6.1 0.00 0.15 0.15 71 1010.9
20260507191459 55 342 2.6 6.1 0.00 0.15 0.15 71 1010.7
20260507190959 55 297 1.7 6.1 0.00 0.15 0.15 71 1010.7
20260507190459 56 306 2.6 4.3 0.00 0.15 0.15 70 1010.7
20260507185959 56 300 2.6 7.8 0.00 0.15 0.15 70 1010.7
20260507185459 56 321 2.6 4.3 0.00 0.15 0.15 70 1010.6
20260507184959 56 323 2.6 5.2 0.00 0.15 0.15 69 1010.6
20260507184459 56 289 3.5 5.2 0.00 0.15 0.15 69 1010.5
20260507183959 57 296 3.5 5.2 0.00 0.15 0.15 69 1010.5
20260507183459 57 334 4.3 7.0 0.00 0.15 0.15 68 1010.5
20260507182959 58 321 5.2 8.7 0.00 0.15 0.15 68 1010.5
20260507182459 58 302 4.3 7.8 0.00 0.15 0.15 68 1010.5
20260507181959 58 322 3.5 7.0 0.00 0.15 0.15 69 1010.4
20260507181459 57 324 3.5 8.7 0.00 0.15 0.15 70 1010.4
20260507180959 57 294 3.5 8.7 0.00 0.15 0.15 72 1010.5
20260507180459 57 348 3.5 7.0 0.00 0.15 0.15 73 1010.5
20260507175959 56 311 4.3 6.1 0.00 0.15 0.15 74 1010.5
20260507175459 56 341 6.1 10.4 0.00 0.15 0.15 74 1010.5
20260507174959 56 299 6.1 9.6 0.00 0.15 0.15 58 1010.5
20260507174459 56 314 4.3 9.6 0.00 0.15 0.15 52 1010.5
20260507173959 56 348 3.5 7.8 0.00 0.15 0.15 49 1010.5
20260507173459 56 340 3.5 6.1 0.00 0.15 0.15 47 1010.4
20260507172959 56 6 5.2 7.8 0.01 0.15 0.15 47 1010.4
20260507172459 55 328 5.2 9.6 0.01 0.15 0.15 49 1010.4
20260507171959 55 330 3.5 10.4 0.01 0.15 0.15 46 1010.3
20260507171459 56 312 3.5 4.3 0.01 0.15 0.15 43 1010.4
20260507171000 55 340 3.5 7.8 0.01 0.15 0.15 44 1010.4
20260507170459 55 4 4.3 7.8 0.01 0.15 0.15 43 1010.4
20260507165959 54 337 4.3 7.8 0.01 0.15 0.15 42 1010.4
20260507165459 54 345 3.5 7.0 0.01 0.15 0.15 41 1010.4
20260507164959 54 333 3.5 6.1 0.01 0.15 0.15 41 1010.3
20260507164459 54 347 3.5 6.1 0.01 0.15 0.15 41 1010.3
20260507163959 54 326 3.5 6.1 0.01 0.15 0.15 41 1010.4
20260507163459 53 333 3.5 6.1 0.01 0.15 0.15 41 1010.4
20260507162959 53 345 4.3 7.8 0.00 0.14 0.14 42 1010.3
20260507162459 52 345 4.3 7.8 0.00 0.14 0.14 43 1010.4
20260507161959 51 326 2.6 7.8 0.00 0.14 0.14 44 1010.3
20260507161459 51 349 1.7 3.5 0.00 0.14 0.14 45 1010.3
20260507160959 50 312 1.7 3.5 0.00 0.14 0.14 45 1010.2
20260507160459 50 312 2.6 3.5 0.00 0.14 0.14 46 1010.1
20260507155959 50 290 2.6 6.1 0.00 0.14 0.14 47 1010.1
20260507155459 49 242 2.6 4.3 0.00 0.14 0.14 47 1010.2
20260507154959 49 282 2.6 6.1 0.00 0.14 0.14 48 1010.5
20260507154459 50 269 1.7 3.5 0.00 0.14 0.14 48 1010.9
20260507153959 50 0 1.7 4.3 0.00 0.14 0.14 48 1011.4
20260507153459 50 306 1.7 3.5 0.00 0.14 0.14 49 1011.5
20260507152959 50 343 1.7 4.3 0.08 0.14 0.14 50 1011.5
20260507152459 49 296 1.7 3.5 0.11 0.14 0.14 51 1011.4
20260507151959 49 338 2.6 4.3 0.11 0.14 0.14 52 1011.3
20260507151459 49 300 3.5 5.2 0.11 0.14 0.14 54 1011.3
20260507150959 49 314 4.3 7.0 0.14 0.14 0.14 55 1011.2
20260507150459 49 319 4.3 7.0 0.14 0.14 0.14 57 1011.2
20260507145959 49 295 2.6 7.8 0.14 0.14 0.14 60 1011.3
20260507145459 49 283 2.6 5.2 0.14 0.14 0.14 63 1011.3
20260507145000 49 296 2.6 4.3 0.14 0.14 0.14 66 1011.3
20260507144500 49 323 4.3 6.1 0.14 0.14 0.14 72 1011.3
20260507143959 51 341 6.1 12.2 0.14 0.14 0.14 74 1011.4
20260507143500 54 12 7.8 10.4 0.14 0.14 0.14 67 1011.6
20260507143000 56 67 7.8 14.8 0.06 0.06 0.06 62 1011.4
20260507142500 58 8 8.7 16.5 0.03 0.03 0.03 57 1011.1
20260507142000 59 358 8.7 17.4 0.03 0.03 0.03 56 1010.9
20260507141500 61 52 5.2 22.6 0.03 0.03 0.03 52 1010.6
20260507141000 62 300 1.7 4.3 0.00 0.00 0.00 52 1010.3
20260507140500 62 218 1.7 3.5 0.00 0.00 0.00 52 1010.0
20260507140000 62 255 1.7 3.5 0.00 0.00 0.00 53 1010.0
20260507135500 63 258 2.6 4.3 0.00 0.00 0.00 52 1009.9
20260507135000 63 258 3.5 8.7 0.00 0.00 0.00 53 1009.9
20260507134500 63 245 2.6 10.4 0.00 0.00 0.00 50 1009.9
20260507134000 64 240 2.6 4.3 0.00 0.00 0.00 53 1009.9
20260507133500 63 139 3.5 6.1 0.00 0.00 0.00 51 1010.0
20260507133000 63 188 4.3 8.7 0.00 0.00 0.00 52 1009.9
20260507132500 63 226 4.3 8.7 0.00 0.00 0.00 53 1009.9
20260507132000 63 150 3.5 9.6 0.00 0.00 0.00 54 1009.9
20260507131500 63 173 2.6 7.8 0.00 0.00 0.00 55 1010.0
20260507131000 63 160 2.6 5.2 0.00 0.00 0.00 55 1009.9
20260507130500 63 163 2.6 5.2 0.00 0.00 0.00 52 1010.0
20260507130000 63 167 2.6 5.2 0.00 0.00 0.00 55 1010.0
20260507125500 62 133 3.5 5.2 0.00 0.00 0.00 53 1010.0
20260507125000 61 226 5.2 7.0 0.00 0.00 0.00 52 1010.1
20260507124500 61 219 3.5 9.6 0.00 0.00 0.00 54 1010.1
20260507124000 60 204 2.6 5.2 0.00 0.00 0.00 55 1010.2
20260507123500 60 257 2.6 5.2 0.00 0.00 0.00 55 1010.4
20260507123000 60 283 2.6 7.0 0.00 0.00 0.00 52 1010.4
20260507122500 60 288 2.6 6.1 0.00 0.00 0.00 52 1010.5
20260507122000 61 247 0.9 7.0 0.00 0.00 0.00 54 1010.6
20260507121500 61 122 1.7 2.6 0.00 0.00 0.00 57 1010.6
20260507121000 61 88 2.6 2.6 0.00 0.00 0.00 56 1010.6
20260507120500 61 87 2.6 4.3 0.00 0.00 0.00 56 1010.7
20260507120000 61 82 4.3 4.3 0.00 0.00 0.00 57 1010.7
20260507115500 61 119 4.3 7.0 0.00 0.00 0.00 56 1010.8
20260507115000 62 130 3.5 8.7 0.00 0.00 0.00 54 1010.9
20260507114500 63 134 1.7 7.8 0.00 0.00 0.00 54 1010.9
20260507114000 64 179 1.7 5.2 0.00 0.00 0.00 54 1010.9
20260507113500 64 49 1.7 4.3 0.00 0.00 0.00 54 1011.0
20260507113000 64 157 1.7 2.6 0.00 0.00 0.00 54 1011.0
20260507112500 64 32 2.6 6.1 0.00 0.00 0.00 54 1011.1
20260507112000 63 73 3.5 6.1 0.00 0.00 0.00 56 1011.2
20260507111500 62 94 3.5 6.1 0.00 0.00 0.00 53 1011.2
20260507111000 63 107 2.6 5.2 0.00 0.00 0.00 52 1011.3
20260507110500 63 350 2.6 4.3 0.00 0.00 0.00 54 1011.4
20260507110000 63 11 1.7 6.1 0.00 0.00 0.00 54 1011.4
20260507105500 62 345 2.6 3.5 0.00 0.00 0.00 55 1011.5
20260507105000 62 345 2.6 5.2 0.00 0.00 0.00 54 1011.6
20260507104500 62 58 1.7 6.1 0.00 0.00 0.00 54 1011.6
20260507104000 62 330 0.9 2.6 0.00 0.00 0.00 56 1011.7
20260507103500 61 276 1.7 2.6 0.00 0.00 0.00 55 1011.7
20260507103000 61 324 1.7 7.0 0.00 0.00 0.00 55 1011.8
20260507102500 61 358 1.7 7.0 0.00 0.00 0.00 55 1011.8
20260507102000 61 42 2.6 3.5 0.00 0.00 0.00 56 1011.8
20260507101500 60 75 2.6 5.2 0.00 0.00 0.00 56 1011.8
20260507101000 61 46 1.7 5.2 0.00 0.00 0.00 57 1011.9
20260507100500 61 14 0.9 3.5 0.00 0.00 0.00 61 1011.9
20260507100000 60 278 0.0 2.6 0.00 0.00 0.00 63 1011.9
20260507095500 60 333 0.0 1.7 0.00 0.00 0.00 64 1012.0
20260507095000 59 181 0.9 1.7 0.00 0.00 0.00 63 1012.0
20260507094500 58 302 1.7 4.3 0.00 0.00 0.00 64 1012.1
20260507094001 57 359 1.7 3.5 0.00 0.00 0.00 66 1012.1
20260507093501 57 300 2.6 5.2 0.00 0.00 0.00 68 1012.1
20260507093001 57 281 1.7 3.5 0.00 0.00 0.00 70 1012.2
20260507092501 56 264 2.6 4.3 0.00 0.00 0.00 70 1012.1
20260507092001 55 311 2.6 5.2 0.00 0.00 0.00 71 1012.2
20260507091501 55 295 2.6 4.3 0.00 0.00 0.00 71 1012.3
20260507091001 55 297 1.7 4.3 0.00 0.00 0.00 70 1012.3
20260507090501 55 307 1.7 3.5 0.00 0.00 0.00 71 1012.3
20260507090001 54 283 1.7 5.2 0.00 0.00 0.00 72 1012.3
20260507085501 54 252 1.7 5.2 0.00 0.00 0.00 71 1012.4
20260507085001 54 263 1.7 4.3 0.00 0.00 0.00 72 1012.4
20260507084501 53 283 2.6 4.3 0.00 0.00 0.00 72 1012.4
20260507084001 53 254 2.6 6.1 0.00 0.00 0.00 73 1012.4
20260507083501 53 303 1.7 4.3 0.00 0.00 0.00 73 1012.4
20260507083001 53 310 2.6 4.3 0.00 0.00 0.00 74 1012.4
20260507082501 52 352 2.6 5.2 0.00 0.00 0.00 74 1012.4
20260507082001 52 307 2.6 5.2 0.00 0.01 0.00 74 1012.4
20260507081501 51 328 1.7 4.3 0.00 0.01 0.00 75 1012.4
20260507081001 51 297 2.6 5.2 0.00 0.01 0.00 74 1012.3
20260507080501 50 287 2.6 5.2 0.00 0.01 0.00 74 1012.2
20260507080001 50 274 3.5 7.8 0.00 0.01 0.00 75 1012.2
20260507075501 49 238 4.3 8.7 0.00 0.01 0.00 75 1012.2
20260507075001 49 268 4.3 8.7 0.00 0.01 0.00 74 1012.2
20260507074501 49 253 3.5 8.7 0.00 0.01 0.00 75 1012.2
20260507074001 49 255 3.5 8.7 0.00 0.01 0.00 75 1012.4
20260507073501 49 246 4.3 7.8 0.00 0.01 0.00 75 1012.4
20260507073001 49 261 3.5 7.8 0.00 0.01 0.00 75 1012.5
20260507072501 49 259 3.5 10.4 0.00 0.01 0.00 75 1012.5
20260507072001 49 249 4.3 8.7 0.00 0.01 0.00 75 1012.6
20260507071501 49 262 4.3 7.8 0.00 0.01 0.00 75 1012.6
20260507071001 49 246 4.3 7.8 0.00 0.01 0.00 74 1012.7
20260507070501 48 276 4.3 8.7 0.00 0.01 0.00 74 1012.7
20260507070001 48 257 4.3 7.8 0.00 0.01 0.00 73 1012.8
20260507065501 48 250 4.3 9.6 0.00 0.01 0.00 72 1012.8
20260507065001 48 246 3.5 8.7 0.00 0.01 0.00 70 1012.8
20260507064501 47 245 2.6 6.1 0.00 0.01 0.00 68 1012.8
20260507064001 47 244 3.5 4.3 0.00 0.01 0.00 67 1012.8
20260507063501 46 246 3.5 7.8 0.00 0.01 0.00 66 1012.8
20260507063001 46 254 2.6 6.1 0.00 0.01 0.00 65 1012.8
20260507062501 46 236 3.5 5.2 0.00 0.01 0.00 64 1012.9
20260507062001 46 241 3.5 7.0 0.00 0.01 0.00 63 1012.8
20260507061502 45 255 3.5 6.1 0.00 0.01 0.00 61 1012.6
20260507061001 45 252 3.5 8.7 0.00 0.01 0.00 61 1012.6